| time (UTC) | temp F | wind direction | speed MPH | gust MPH | rain 1hr in | rain 24hr in | rain mn in | humidity % | barometer mb |
| 20260831084818 | 62 | 231 | 1.0 | 1.0 | 0.00 | 0.09 | 0.00 | 64 | 1022.8 |
| 20260831083822 | 62 | 238 | 1.0 | 1.0 | 0.00 | 0.09 | 0.00 | 67 | 1022.8 |
| 20260831082839 | 62 | 236 | 1.0 | 1.0 | 0.00 | 0.09 | 0.00 | 67 | 1023.0 |
| 20260831081819 | 62 | 270 | 2.0 | 2.0 | 0.00 | 0.09 | 0.00 | 69 | 1023.0 |
| 20260831080905 | 63 | 326 | 1.0 | 1.0 | 0.00 | 0.09 | 0.00 | 68 | 1023.0 |
| 20260831075820 | 63 | 208 | 1.0 | 2.0 | 0.00 | 0.09 | 0.00 | 67 | 1022.9 |
| 20260831074820 | 63 | 0.0 | 0.0 | 0.00 | 0.09 | 0.00 | 69 | 1023.1 | |
| 20260831073823 | 63 | 44 | 2.0 | 2.0 | 0.00 | 0.09 | 0.00 | 68 | 1023.2 |
| 20260831072841 | 64 | 190 | 1.0 | 1.0 | 0.00 | 0.09 | 0.00 | 64 | 1023.3 |
| 20260831071820 | 65 | 33 | 2.0 | 3.0 | 0.00 | 0.09 | 0.00 | 59 | 1023.3 |
| 20260831070823 | 66 | 303 | 2.0 | 2.0 | 0.00 | 0.09 | 0.00 | 54 | 1023.3 |
| 20260831065821 | 67 | 300 | 0.0 | 1.0 | 0.00 | 0.09 | 0.00 | 51 | 1023.4 |
| 20260831064821 | 68 | 200 | 2.0 | 3.0 | 0.00 | 0.09 | 0.00 | 48 | 1023.4 |
| 20260831063821 | 70 | 330 | 3.0 | 3.0 | 0.00 | 0.09 | 0.00 | 45 | 1023.3 |
| 20260831062817 | 69 | 220 | 4.0 | 6.0 | 0.00 | 0.09 | 0.00 | 45 | 1022.9 |
| 20260831061817 | 69 | 294 | 3.0 | 5.0 | 0.00 | 0.09 | 0.00 | 44 | 1023.0 |
| 20260831060817 | 70 | 218 | 5.0 | 7.0 | 0.00 | 0.09 | 0.00 | 44 | 1023.2 |
| 20260831055825 | 0 | 256 | 5.0 | 6.0 | 0.00 | 0.09 | 0.09 | ||
| 20260831054818 | 67 | 236 | 5.0 | 7.0 | 0.00 | 0.09 | 0.09 | 48 | 1023.4 |
| 20260831053858 | 0 | 229 | 2.0 | 5.0 | 0.00 | 0.09 | 0.09 | ||
| 20260831052842 | 68 | 277 | 3.0 | 6.0 | 0.00 | 0.09 | 0.09 | 52 | 1023.7 |
| 20260831051823 | 68 | 307 | 2.0 | 4.0 | 0.00 | 0.09 | 0.09 | 51 | 1023.6 |
| 20260831050839 | 0 | 236 | 2.0 | 3.0 | 0.00 | 0.09 | 0.09 | ||
| 20260831045823 | 69 | 284 | 4.0 | 7.0 | 0.00 | 0.09 | 0.09 | 50 | 1024.2 |
| 20260831044819 | 69 | 278 | 3.0 | 5.0 | 0.00 | 0.09 | 0.09 | 47 | 1024.3 |
| 20260831043818 | 67 | 282 | 3.0 | 6.0 | 0.00 | 0.09 | 0.09 | 50 | 1024.3 |
| 20260831042842 | 66 | 323 | 4.0 | 5.0 | 0.00 | 0.09 | 0.09 | 58 | 1024.2 |
| 20260831041829 | 66 | 288 | 1.0 | 1.0 | 0.00 | 0.09 | 0.09 | 70 | 1023.9 |
| 20260831040823 | 66 | 285 | 1.0 | 1.0 | 0.00 | 0.09 | 0.09 | 68 | 1023.7 |
| 20260831035827 | 66 | 270 | 1.0 | 1.0 | 0.00 | 0.09 | 0.09 | 67 | 1023.6 |
| 20260831034925 | 66 | 255 | 1.0 | 2.0 | 0.00 | 0.09 | 0.09 | 67 | 1023.6 |
| 20260831033824 | 65 | 0.0 | 0.0 | 0.00 | 0.09 | 0.09 | 64 | 1023.5 | |
| 20260831032827 | 64 | 251 | 0.0 | 0.0 | 0.00 | 0.09 | 0.09 | 66 | 1023.5 |
| 20260831031824 | 63 | 0.0 | 0.0 | 0.00 | 0.09 | 0.09 | 71 | 1023.4 | |
| 20260831030824 | 63 | 251 | 1.0 | 1.0 | 0.00 | 0.09 | 0.09 | 74 | 1023.5 |
| 20260831025828 | 63 | 231 | 1.0 | 1.0 | 0.00 | 0.09 | 0.09 | 74 | 1023.4 |
| 20260831024825 | 63 | 218 | 1.0 | 1.0 | 0.00 | 0.09 | 0.09 | 74 | 1023.4 |
| 20260831023825 | 64 | 227 | 1.0 | 1.0 | 0.00 | 0.09 | 0.09 | 74 | 1023.4 |
| 20260831022829 | 64 | 223 | 1.0 | 1.0 | 0.00 | 0.09 | 0.09 | 74 | 1023.2 |
| 20260831021826 | 65 | 216 | 0.0 | 1.0 | 0.00 | 0.09 | 0.09 | 73 | 1023.1 |
| 20260831020846 | 64 | 117 | 1.0 | 1.0 | 0.00 | 0.09 | 0.09 | 71 | 1023.0 |
| 20260831015829 | 65 | 0.0 | 0.0 | 0.00 | 0.09 | 0.09 | 69 | 1022.9 | |
| 20260831014827 | 66 | 0.0 | 0.0 | 0.00 | 0.09 | 0.09 | 67 | 1022.9 | |
| 20260831013826 | 66 | 322 | 1.0 | 1.0 | 0.00 | 0.09 | 0.09 | 67 | 1022.9 |
| 20260831012830 | 67 | 201 | 1.0 | 2.0 | 0.00 | 0.09 | 0.09 | 66 | 1022.8 |
| 20260831011846 | 68 | 302 | 1.0 | 2.0 | 0.00 | 0.09 | 0.09 | 64 | 1022.8 |
| 20260831010826 | 68 | 189 | 2.0 | 2.0 | 0.00 | 0.09 | 0.09 | 62 | 1022.7 |
| 20260831005830 | 69 | 173 | 3.0 | 3.0 | 0.00 | 0.09 | 0.09 | 60 | 1022.8 |
| 20260831004828 | 69 | 186 | 2.0 | 3.0 | 0.00 | 0.09 | 0.09 | 59 | 1022.7 |
| 20260831003827 | 70 | 210 | 2.0 | 2.0 | 0.00 | 0.09 | 0.09 | 58 | 1022.8 |
| 20260831002837 | 70 | 278 | 2.0 | 5.0 | 0.00 | 0.09 | 0.09 | 57 | 1022.6 |
| 20260831001827 | 71 | 17 | 3.0 | 4.0 | 0.00 | 0.09 | 0.09 | 56 | 1022.7 |
| 20260831000817 | 71 | 136 | 3.0 | 3.0 | 0.00 | 0.09 | 0.09 | 54 | 1022.8 |
| 20260830235821 | 71 | 40 | 4.0 | 7.0 | 0.00 | 0.09 | 0.09 | 52 | 1022.9 |
| 20260830234829 | 71 | 26 | 5.0 | 8.0 | 0.00 | 0.09 | 0.09 | 53 | 1022.8 |
| 20260830233832 | 72 | 16 | 3.0 | 4.0 | 0.00 | 0.09 | 0.09 | 51 | 1022.6 |
| 20260830232828 | 74 | 113 | 5.0 | 7.0 | 0.00 | 0.09 | 0.09 | 47 | 1022.3 |
| 20260830231821 | 74 | 80 | 2.0 | 4.0 | 0.00 | 0.09 | 0.09 | 46 | 1022.0 |
| 20260830230818 | 74 | 147 | 3.0 | 4.0 | 0.00 | 0.09 | 0.09 | 45 | 1022.0 |
| 20260830225818 | 73 | 151 | 4.0 | 5.0 | 0.00 | 0.09 | 0.09 | 45 | 1022.0 |
| 20260830224822 | 72 | 111 | 3.0 | 4.0 | 0.00 | 0.09 | 0.09 | 48 | 1022.0 |
| 20260830223819 | 73 | 153 | 5.0 | 6.0 | 0.00 | 0.09 | 0.09 | 44 | 1022.0 |
| 20260830222819 | 73 | 189 | 2.0 | 3.0 | 0.00 | 0.09 | 0.09 | 42 | 1022.0 |
| 20260830221830 | 72 | 211 | 6.0 | 8.0 | 0.00 | 0.09 | 0.09 | 44 | 1022.3 |
| 20260830220816 | 71 | 258 | 6.0 | 8.0 | 0.01 | 0.09 | 0.09 | 44 | 1022.4 |
| 20260830215822 | 69 | 198 | 4.0 | 6.0 | 0.01 | 0.09 | 0.09 | 50 | 1022.5 |
| 20260830214851 | 69 | 205 | 4.0 | 8.0 | 0.01 | 0.09 | 0.09 | 49 | 1022.7 |
| 20260830213819 | 67 | 232 | 4.0 | 8.0 | 0.01 | 0.09 | 0.09 | 52 | 1022.8 |
| 20260830212823 | 65 | 279 | 4.0 | 7.0 | 0.04 | 0.10 | 0.09 | 57 | 1022.9 |
| 20260830211820 | 65 | 244 | 5.0 | 10.0 | 0.08 | 0.12 | 0.09 | 61 | 1022.8 |
| 20260830210817 | 65 | 259 | 7.0 | 18.0 | 0.07 | 0.11 | 0.08 | 59 | 1022.7 |
| 20260830205823 | 64 | 303 | 3.0 | 7.0 | 0.08 | 0.11 | 0.08 | 63 | 1023.0 |
| 20260830204829 | 62 | 286 | 6.0 | 12.0 | 0.08 | 0.11 | 0.08 | 65 | 1023.3 |
| 20260830203820 | 61 | 275 | 6.0 | 10.0 | 0.08 | 0.11 | 0.08 | 73 | 1023.4 |
| 20260830202820 | 66 | 273 | 6.0 | 8.0 | 0.05 | 0.08 | 0.05 | 73 | 1023.6 |
| 20260830201829 | 72 | 274 | 7.0 | 11.0 | 0.01 | 0.04 | 0.01 | 47 | 1023.4 |
| 20260830200901 | 74 | 324 | 3.0 | 5.0 | 0.01 | 0.04 | 0.01 | 56 | 1022.6 |
| 20260830195822 | 0 | 287 | 4.0 | 6.0 | 0.00 | 0.03 | 0.00 | ||
| 20260830194821 | 75 | 316 | 3.0 | 5.0 | 0.00 | 0.03 | 0.00 | 44 | 1021.8 |
| 20260830193818 | 76 | 285 | 5.0 | 7.0 | 0.00 | 0.03 | 0.00 | 49 | 1021.8 |
| 20260830192905 | 77 | 25 | 2.0 | 3.0 | 0.00 | 0.03 | 0.00 | 41 | 1021.5 |
| 20260830191833 | 77 | 144 | 4.0 | 5.0 | 0.00 | 0.03 | 0.00 | 42 | 1021.1 |
| 20260830190821 | 77 | 170 | 4.0 | 6.0 | 0.00 | 0.03 | 0.00 | 43 | 1021.2 |
| 20260830185823 | 0 | 181 | 3.0 | 5.0 | 0.00 | 0.03 | 0.00 | ||
| 20260830184834 | 77 | 152 | 4.0 | 5.0 | 0.00 | 0.03 | 0.00 | 42 | 1021.4 |
| 20260830183823 | 77 | 53 | 2.0 | 4.0 | 0.00 | 0.03 | 0.00 | 41 | 1021.4 |
| 20260830182819 | 77 | 59 | 4.0 | 6.0 | 0.00 | 0.03 | 0.00 | 42 | 1021.4 |
| 20260830181816 | 77 | 143 | 3.0 | 7.0 | 0.00 | 0.03 | 0.00 | 42 | 1021.6 |
| 20260830180816 | 76 | 128 | 4.0 | 6.0 | 0.00 | 0.03 | 0.00 | 43 | 1021.7 |
| 20260830175819 | 76 | 117 | 5.0 | 8.0 | 0.00 | 0.03 | 0.00 | 43 | 1021.8 |
| 20260830174829 | 76 | 143 | 3.0 | 5.0 | 0.00 | 0.03 | 0.00 | 43 | 1021.9 |
| 20260830173817 | 77 | 155 | 4.0 | 5.0 | 0.00 | 0.03 | 0.00 | 43 | 1021.9 |
| 20260830172848 | 77 | 138 | 6.0 | 8.0 | 0.00 | 0.03 | 0.00 | 40 | 1021.9 |
| 20260830171835 | 76 | 116 | 8.0 | 10.0 | 0.00 | 0.03 | 0.00 | 41 | 1022.1 |
| 20260830170843 | 76 | 135 | 4.0 | 7.0 | 0.00 | 0.03 | 0.00 | 43 | 1022.0 |
| 20260830165829 | 75 | 142 | 5.0 | 7.0 | 0.00 | 0.03 | 0.00 | 44 | 1022.2 |
| 20260830164818 | 75 | 129 | 4.0 | 6.0 | 0.00 | 0.03 | 0.00 | 44 | 1022.1 |
| 20260830163841 | 75 | 187 | 3.0 | 5.0 | 0.00 | 0.03 | 0.00 | 44 | 1022.2 |
| 20260830162830 | 75 | 185 | 2.0 | 4.0 | 0.00 | 0.03 | 0.00 | 44 | 1022.2 |
| 20260830161821 | 75 | 170 | 3.0 | 3.0 | 0.00 | 0.03 | 0.00 | 44 | 1022.2 |
| 20260830160824 | 75 | 214 | 3.0 | 4.0 | 0.00 | 0.03 | 0.00 | 44 | 1022.2 |
| 20260830155901 | 74 | 206 | 6.0 | 7.0 | 0.00 | 0.03 | 0.00 | 43 | 1022.3 |
| 20260830154818 | 74 | 300 | 3.0 | 5.0 | 0.00 | 0.03 | 0.00 | 46 | 1022.4 |
| 20260830153821 | 73 | 296 | 4.0 | 6.0 | 0.00 | 0.03 | 0.00 | 46 | 1022.4 |
| 20260830152831 | 72 | 302 | 3.0 | 5.0 | 0.00 | 0.03 | 0.00 | 47 | 1022.4 |
| 20260830151822 | 71 | 300 | 2.0 | 3.0 | 0.00 | 0.03 | 0.00 | 48 | 1022.5 |
| 20260830150824 | 69 | 359 | 2.0 | 3.0 | 0.00 | 0.03 | 0.00 | 50 | 1022.7 |
| 20260830145834 | 68 | 286 | 1.0 | 3.0 | 0.00 | 0.03 | 0.00 | 53 | 1022.8 |
| 20260830144822 | 68 | 285 | 1.0 | 2.0 | 0.00 | 0.03 | 0.00 | 56 | 1022.6 |
| 20260830143826 | 67 | 310 | 2.0 | 2.0 | 0.00 | 0.03 | 0.00 | 54 | 1022.3 |
| 20260830142835 | 67 | 1 | 3.0 | 4.0 | 0.00 | 0.03 | 0.00 | 56 | 1022.2 |
| 20260830141824 | 67 | 291 | 1.0 | 1.0 | 0.00 | 0.03 | 0.00 | 57 | 1022.3 |
| 20260830140906 | 67 | 329 | 2.0 | 2.0 | 0.00 | 0.03 | 0.00 | 56 | 1022.3 |
| 20260830135916 | 67 | 14 | 3.0 | 4.0 | 0.00 | 0.03 | 0.00 | 53 | 1022.4 |
| 20260830134824 | 66 | 285 | 0.0 | 1.0 | 0.00 | 0.03 | 0.00 | 54 | 1022.4 |
| 20260830133826 | 65 | 267 | 1.0 | 2.0 | 0.00 | 0.03 | 0.00 | 54 | 1022.2 |
| 20260830132835 | 64 | 49 | 1.0 | 1.0 | 0.00 | 0.03 | 0.00 | 60 | 1022.3 |
| 20260830131824 | 63 | 226 | 1.0 | 1.0 | 0.00 | 0.03 | 0.00 | 60 | 1022.2 |
| 20260830130847 | 63 | 293 | 1.0 | 2.0 | 0.00 | 0.03 | 0.00 | 61 | 1022.2 |
| 20260830125856 | 63 | 16 | 1.0 | 2.0 | 0.00 | 0.03 | 0.00 | 59 | 1022.1 |
| 20260830124825 | 62 | 305 | 1.0 | 2.0 | 0.00 | 0.03 | 0.00 | 63 | 1022.2 |
| 20260830123826 | 62 | 233 | 1.0 | 2.0 | 0.00 | 0.03 | 0.00 | 63 | 1022.1 |
| 20260830122837 | 63 | 247 | 1.0 | 1.0 | 0.00 | 0.03 | 0.00 | 61 | 1022.0 |
| 20260830121825 | 63 | 353 | 0.0 | 0.0 | 0.00 | 0.03 | 0.00 | 60 | 1021.8 |
| 20260830120827 | 63 | 212 | 1.0 | 1.0 | 0.00 | 0.03 | 0.00 | 61 | 1021.8 |
| 20260830115837 | 62 | 288 | 1.0 | 1.0 | 0.00 | 0.03 | 0.00 | 62 | 1021.7 |
| 20260830114826 | 62 | 244 | 0.0 | 1.0 | 0.00 | 0.03 | 0.00 | 62 | 1021.6 |
| 20260830113827 | 62 | 251 | 1.0 | 2.0 | 0.00 | 0.03 | 0.00 | 62 | 1021.5 |
| 20260830112838 | 62 | 292 | 1.0 | 2.0 | 0.00 | 0.03 | 0.00 | 63 | 1021.4 |
| 20260830111826 | 62 | 265 | 1.0 | 1.0 | 0.00 | 0.03 | 0.00 | 62 | 1021.5 |
| 20260830110850 | 62 | 250 | 1.0 | 1.0 | 0.00 | 0.03 | 0.00 | 62 | 1021.5 |
| 20260830105838 | 62 | 267 | 1.0 | 2.0 | 0.00 | 0.03 | 0.00 | 62 | 1021.5 |
| 20260830104826 | 62 | 232 | 0.0 | 0.0 | 0.00 | 0.03 | 0.00 | 61 | 1021.5 |
| 20260830103829 | 63 | 243 | 1.0 | 1.0 | 0.00 | 0.03 | 0.00 | 60 | 1021.5 |
| 20260830102839 | 63 | 228 | 0.0 | 1.0 | 0.00 | 0.03 | 0.00 | 59 | 1021.6 |
| 20260830101827 | 63 | 258 | 1.0 | 2.0 | 0.00 | 0.03 | 0.00 | 58 | 1021.6 |
| 20260830100829 | 63 | 249 | 0.0 | 1.0 | 0.00 | 0.03 | 0.00 | 57 | 1021.5 |
| 20260830095828 | 63 | 280 | 1.0 | 1.0 | 0.00 | 0.03 | 0.00 | 57 | 1021.4 |
| 20260830094850 | 64 | 220 | 1.0 | 1.0 | 0.00 | 0.03 | 0.00 | 57 | 1021.4 |
| 20260830093900 | 63 | 226 | 2.0 | 2.0 | 0.00 | 0.03 | 0.00 | 59 | 1021.4 |
| 20260830092828 | 63 | 286 | 0.0 | 0.0 | 0.00 | 0.03 | 0.00 | 57 | 1021.4 |
| 20260830091830 | 63 | 322 | 1.0 | 1.0 | 0.00 | 0.03 | 0.00 | 60 | 1021.6 |
| 20260830090845 | 63 | 293 | 1.0 | 1.0 | 0.00 | 0.03 | 0.00 | 61 | 1021.5 |
| 20260830085829 | 63 | 238 | 0.0 | 1.0 | 0.00 | 0.03 | 0.00 | 61 | 1021.4 |